Flag for Lithuania Weather past 2 weeks in Vilnius, Lithuania

Now
72 °F

Partly sunny.


Feels Like: 77 °F
Forecast: 55 / 69 °F
Wind: 17 mph from Southwest

Location: Vilnius Airport

Current Time: Jul 29, 2015 at 2:43:07 PM

Latest Report: Jul 29, 2015 at 2:20 PM


Visibility: N/A

Pressure: 29.68 "Hg

Humidity: 47%

Dew point: 50 °F

Location of VilniusLocation

Historic Weather in Vilnius — Graph

°F

Vilnius temperature yesterday

Maximum temperature yesterday: 68 °F (at 12:20 PM)
Minimum temperature yesterday: 54 °F (at 11:20 PM)
Average temperature yesterday: 60 °F

Past Weeks' High & Low Weather Summary

 TemperatureHumidityPressure
High79 °F (Jul 25, 4:50 PM)100% (Jul 14, 9:50 PM)30.04 "Hg (Jul 14, 9:50 PM)
Low45 °F (Jul 17, 3:50 AM)31% (Jul 19, 12:50 PM)29.47 "Hg (Jul 20, 5:20 AM)
Average62 °F72%29.85 "Hg
* Reported Jul 14 1:20 PM — Jul 29 1:20 PM, Vilnius, Weather by CustomWeather, © 2015

Note: Actual official high and low records may vary slightly from our data, if they occured in-between our weather recording intervals... More about our weather records

Advertising

Vilnius weather history for previous 24 hours

 ConditionsComfort  
Time TempWeatherWind HumidityBarometerVisibility
1:20 PM
Wed, Jul 29
68 °FPartly sunny.15 mph56%29.68 "HgN/A
12:50 PM68 °FPartly sunny.14 mph60%29.68 "HgN/A
12:20 PM66 °FPartly sunny.13 mph68%29.68 "HgN/A
11:50 AM64 °FPartly sunny.13 mph78%29.68 "HgN/A
11:20 AM63 °FPartly sunny.12 mph83%29.68 "HgN/A
10:20 AM61 °FPartly sunny.8 mph83%29.68 "HgN/A
9:50 AM61 °FPartly sunny.6 mph88%29.68 "Hg4 mi
9:20 AM59 °FBroken clouds.9 mph88%29.68 "Hg4 mi
8:50 AM57 °FFog.8 mph94%29.68 "Hg2 mi
8:20 AM55 °FFog.8 mph100%29.68 "Hg2 mi
7:50 AM55 °FFog.8 mph100%29.65 "Hg2 mi
7:20 AM54 °FFog.7 mph100%29.65 "Hg2 mi
6:50 AM54 °FFog.8 mph100%29.65 "Hg2 mi
6:20 AM54 °FFog.6 mph100%29.65 "Hg2 mi
5:50 AM54 °FFog.6 mph100%29.65 "Hg2 mi
5:20 AM54 °FFog.8 mph100%29.65 "Hg2 mi
4:50 AM54 °FFog.8 mph100%29.65 "Hg2 mi
4:20 AM54 °FFog.10 mph100%29.62 "Hg1 mi
3:50 AM55 °FFog.8 mph100%29.62 "Hg1 mi
3:20 AM54 °FFog.7 mph100%29.62 "Hg0 mi
2:50 AM52 °FFog.6 mph100%29.62 "Hg0 mi
2:20 AM52 °FClear.6 mph94%29.62 "Hg4 mi
1:50 AM54 °FClear.3 mph94%29.62 "Hg4 mi
12:20 AM54 °FPartly cloudy.5 mph100%29.62 "Hg4 mi
11:50 PM
Tue, Jul 28
54 °FPartly cloudy.5 mph100%29.62 "Hg4 mi
11:20 PM54 °FPartly cloudy.1 mph94%29.62 "Hg4 mi
10:50 PM55 °FPartly cloudy.5 mph94%29.62 "Hg4 mi
10:20 PM55 °FBroken clouds.7 mph94%29.62 "Hg4 mi
9:50 PM55 °FBroken clouds.7 mph94%29.62 "Hg4 mi
9:20 PM57 °FThundershowers. Broken clouds.6 mph94%29.59 "Hg4 mi
8:50 PM59 °FThunderstorms. Cloudy.10 mph88%29.62 "Hg2 mi
8:20 PM61 °FThunderstorms. Partly sunny.5 mph94%29.59 "Hg2 mi
7:50 PM63 °FScattered showers. Broken clouds.6 mph88%29.59 "HgN/A
7:20 PM63 °FScattered showers. Broken clouds.7 mph88%29.59 "HgN/A
6:50 PM64 °FBroken clouds.7 mph83%29.59 "HgN/A
6:20 PM63 °FBroken clouds.6 mph83%29.59 "HgN/A
5:50 PM63 °FThundershowers. Broken clouds.8 mph83%29.59 "HgN/A
5:20 PM61 °FThundershowers. Partly sunny.7 mph83%29.59 "HgN/A
4:50 PM59 °FThunderstorms. Partly sunny.9 mph88%29.59 "Hg2 mi
4:20 PM66 °FThundershowers. Partly sunny.10 mph68%29.59 "HgN/A
3:58 PM68 °FThundershowers. Broken clouds.12 mph69%29.59 "HgN/A
3:20 PM66 °FBroken clouds.9 mph73%29.59 "HgN/A
2:50 PM64 °FBroken clouds.6 mph78%29.59 "HgN/A
2:20 PM63 °FBroken clouds.7 mph88%29.59 "HgN/A
Weather by CustomWeather, © 2015

See weather overviewHow to use our weather pages